Time,TemperatureF,DewpointF,PressureIn,WindDirection,WindDirectionDegrees,WindSpeedMPH,WindSpeedGustMPH,Humidity,HourlyPrecipIn,Conditions,Clouds,dailyrainin,SoftwareType,DateUTC
2013-08-04 00:01:00,67.3,62.6,29.81,East,90,0.5,0.5,85,0.00,RA,,0.00,WeatherDisplay:10.37,2013-08-04 04:01:00,
2013-08-04 00:06:00,67.3,62.9,29.81,East,90,0.0,0.0,86,0.00,RA,,0.00,WeatherDisplay:10.37,2013-08-04 04:06:00,
2013-08-04 00:11:00,67.3,62.9,29.81,East,90,0.0,0.0,86,0.00,CLR,,0.00,WeatherDisplay:10.37,2013-08-04 04:11:00,
2013-08-04 00:16:00,67.1,62.8,29.81,East,90,0.0,0.0,86,0.00,CLR,,0.00,WeatherDisplay:10.37,2013-08-04 04:16:00,
2013-08-04 00:21:00,66.9,62.6,29.81,East,90,0.0,0.0,86,0.00,CLR,,0.00,WeatherDisplay:10.37,2013-08-04 04:21:00,
2013-08-04 00:26:00,66.7,62.4,29.81,East,90,0.0,0.0,86,0.00,CLR,,0.00,WeatherDisplay:10.37,2013-08-04 04:26:00,
2013-08-04 00:31:00,66.6,62.2,29.81,East,90,0.0,0.0,86,0.00,CLR,,0.00,WeatherDisplay:10.37,2013-08-04 04:31:00,
2013-08-04 00:36:00,66.6,62.6,29.81,East,90,0.0,0.0,87,0.00,CLR,,0.00,WeatherDisplay:10.37,2013-08-04 04:36:00,
2013-08-04 00:41:00,66.6,62.6,29.81,East,90,0.0,0.0,87,0.00,CLR,,0.00,WeatherDisplay:10.37,2013-08-04 04:41:00,
2013-08-04 00:46:00,66.4,62.4,29.80,East,90,0.0,0.0,87,0.00,CLR,,0.00,WeatherDisplay:10.37,2013-08-04 04:46:00,
2013-08-04 00:51:00,66.2,62.2,29.80,East,90,0.0,0.0,87,0.00,CLR,,0.00,WeatherDisplay:10.37,2013-08-04 04:51:00,
2013-08-04 00:56:00,66.2,62.2,29.80,East,90,0.0,0.0,87,0.00,CLR,,0.00,WeatherDisplay:10.37,2013-08-04 04:56:00,
2013-08-04 01:01:00,66.0,62.4,29.80,South,180,0.0,0.0,88,0.00,CLR,,0.00,WeatherDisplay:10.37,2013-08-04 05:01:00,
2013-08-04 01:06:00,65.8,62.2,29.80,South,180,0.0,0.0,88,0.00,CLR,,0.00,WeatherDisplay:10.37,2013-08-04 05:06:00,
2013-08-04 01:11:00,65.8,62.2,29.80,South,180,0.0,0.0,88,0.00,CLR,,0.00,WeatherDisplay:10.37,2013-08-04 05:11:00,
2013-08-04 01:16:00,65.8,62.2,29.80,South,180,0.0,0.0,88,0.00,CLR,,0.00,WeatherDisplay:10.37,2013-08-04 05:16:00,
2013-08-04 01:21:00,65.5,61.8,29.80,South,180,0.0,0.0,88,0.00,CLR,,0.00,WeatherDisplay:10.37,2013-08-04 05:21:00,
2013-08-04 01:26:00,65.5,61.8,29.80,South,180,0.0,0.0,88,0.00,CLR,,0.00,WeatherDisplay:10.37,2013-08-04 05:26:00,
2013-08-04 01:31:00,65.3,61.7,29.80,South,180,0.0,0.0,88,0.00,CLR,,0.00,WeatherDisplay:10.37,2013-08-04 05:31:00,
2013-08-04 01:36:00,65.3,61.7,29.80,South,180,0.0,0.0,88,0.00,CLR,,0.00,WeatherDisplay:10.37,2013-08-04 05:36:00,
2013-08-04 01:41:00,65.1,61.2,29.80,South,180,0.0,0.0,87,0.00,CLR,,0.00,WeatherDisplay:10.37,2013-08-04 05:41:00,
2013-08-04 01:46:00,65.1,61.2,29.80,South,180,0.0,0.0,87,0.00,CLR,,0.00,WeatherDisplay:10.37,2013-08-04 05:46:00,
2013-08-04 01:51:00,64.9,61.0,29.80,South,180,0.0,0.0,87,0.00,CLR,,0.00,WeatherDisplay:10.37,2013-08-04 05:51:00,
2013-08-04 01:56:00,64.8,60.8,29.79,South,180,0.0,0.0,87,0.00,CLR,,0.00,WeatherDisplay:10.37,2013-08-04 05:56:00,
2013-08-04 02:01:00,64.8,60.8,29.79,South,180,0.0,0.0,87,0.00,CLR,,0.00,WeatherDisplay:10.37,2013-08-04 06:01:00,
2013-08-04 02:06:00,64.6,60.6,29.79,South,180,0.0,0.0,87,0.00,CLR,,0.00,WeatherDisplay:10.37,2013-08-04 06:06:00,
2013-08-04 02:11:00,64.6,60.9,29.79,South,180,0.0,0.0,88,0.00,CLR,,0.00,WeatherDisplay:10.37,2013-08-04 06:11:00,
2013-08-04 02:16:00,64.4,60.8,29.79,South,180,0.0,0.0,88,0.00,CLR,,0.00,WeatherDisplay:10.37,2013-08-04 06:16:00,
2013-08-04 02:21:00,64.4,60.8,29.80,South,180,0.0,0.0,88,0.00,CLR,,0.00,WeatherDisplay:10.37,2013-08-04 06:21:00,
2013-08-04 02:26:00,64.4,60.8,29.79,South,180,0.0,0.0,88,0.00,CLR,,0.00,WeatherDisplay:10.37,2013-08-04 06:26:00,
2013-08-04 02:31:00,64.4,60.8,29.79,South,180,0.0,0.0,88,0.00,CLR,,0.00,WeatherDisplay:10.37,2013-08-04 06:31:00,
2013-08-04 02:36:00,64.2,60.6,29.79,South,180,0.0,0.0,88,0.00,CLR,,0.00,WeatherDisplay:10.37,2013-08-04 06:36:00,
2013-08-04 02:41:00,64.2,60.6,29.79,South,180,0.0,0.0,88,0.00,CLR,,0.00,WeatherDisplay:10.37,2013-08-04 06:41:00,
2013-08-04 02:46:00,64.0,60.4,29.79,South,180,0.0,0.0,88,0.00,CLR,,0.00,WeatherDisplay:10.37,2013-08-04 06:46:00,
2013-08-04 02:51:00,64.0,60.4,29.79,South,180,0.0,0.0,88,0.00,CLR,,0.00,WeatherDisplay:10.37,2013-08-04 06:51:00,
2013-08-04 02:56:00,64.0,60.4,29.79,South,180,0.0,0.0,88,0.00,CLR,,0.00,WeatherDisplay:10.37,2013-08-04 06:56:00,
2013-08-04 03:01:00,64.0,60.7,29.79,South,180,0.0,0.0,89,0.00,CLR,,0.00,WeatherDisplay:10.37,2013-08-04 07:01:00,
2013-08-04 03:06:00,63.9,60.6,29.79,South,180,0.0,0.0,89,0.00,CLR,,0.00,WeatherDisplay:10.37,2013-08-04 07:06:00,
2013-08-04 03:11:00,63.7,60.4,29.79,South,180,0.0,0.0,89,0.00,CLR,,0.00,WeatherDisplay:10.37,2013-08-04 07:11:00,
2013-08-04 03:16:00,63.7,60.4,29.79,South,180,0.0,0.0,89,0.00,CLR,,0.00,WeatherDisplay:10.37,2013-08-04 07:16:00,
2013-08-04 03:21:00,63.5,60.2,29.79,South,180,0.0,0.0,89,0.00,CLR,,0.00,WeatherDisplay:10.37,2013-08-04 07:21:00,
2013-08-04 03:26:00,63.5,60.2,29.79,South,180,0.0,0.0,89,0.00,CLR,,0.00,WeatherDisplay:10.37,2013-08-04 07:26:00,
2013-08-04 03:31:00,63.3,60.0,29.79,South,180,0.0,0.0,89,0.00,CLR,,0.00,WeatherDisplay:10.37,2013-08-04 07:31:00,
2013-08-04 03:36:00,63.3,60.0,29.79,South,180,0.0,0.0,89,0.00,CLR,,0.00,WeatherDisplay:10.37,2013-08-04 07:36:00,
2013-08-04 03:41:00,63.1,59.8,29.79,South,180,0.0,0.0,89,0.00,CLR,,0.00,WeatherDisplay:10.37,2013-08-04 07:41:00,
2013-08-04 03:46:00,63.1,59.8,29.79,South,180,0.0,0.0,89,0.00,CLR,,0.00,WeatherDisplay:10.37,2013-08-04 07:46:00,
2013-08-04 03:51:00,63.0,59.7,29.79,South,180,0.0,0.0,89,0.00,CLR,,0.00,WeatherDisplay:10.37,2013-08-04 07:51:00,
2013-08-04 03:56:00,63.0,59.7,29.79,South,180,0.0,0.0,89,0.00,CLR,,0.00,WeatherDisplay:10.37,2013-08-04 07:56:00,
2013-08-04 04:01:00,63.0,59.7,29.79,South,180,0.0,0.0,89,0.00,CLR,,0.00,WeatherDisplay:10.37,2013-08-04 08:01:00,
2013-08-04 04:06:00,62.8,59.5,29.79,South,180,0.0,0.0,89,0.00,CLR,,0.00,WeatherDisplay:10.37,2013-08-04 08:06:00,
2013-08-04 04:11:00,62.8,59.5,29.79,South,180,0.0,0.0,89,0.00,CLR,,0.00,WeatherDisplay:10.37,2013-08-04 08:11:00,
2013-08-04 04:16:00,62.8,59.5,29.79,ESE,112,0.0,0.0,89,0.00,CLR,,0.00,WeatherDisplay:10.37,2013-08-04 08:16:00,
2013-08-04 04:21:00,62.6,59.3,29.79,ESE,112,0.0,0.0,89,0.00,CLR,,0.00,WeatherDisplay:10.37,2013-08-04 08:21:00,
2013-08-04 04:26:00,62.6,59.3,29.80,ESE,112,0.0,0.0,89,0.00,CLR,,0.00,WeatherDisplay:10.37,2013-08-04 08:26:00,
2013-08-04 04:31:00,62.6,59.3,29.79,ESE,112,0.0,0.0,89,0.00,CLR,,0.00,WeatherDisplay:10.37,2013-08-04 08:31:00,
2013-08-04 04:36:00,62.6,59.3,29.79,ESE,112,0.0,0.0,89,0.00,CLR,,0.00,WeatherDisplay:10.37,2013-08-04 08:36:00,
2013-08-04 04:41:00,62.4,59.1,29.80,ESE,112,0.0,0.0,89,0.00,CLR,,0.00,WeatherDisplay:10.37,2013-08-04 08:41:00,
2013-08-04 04:46:00,62.4,59.1,29.79,ESE,112,0.0,0.0,89,0.00,CLR,,0.00,WeatherDisplay:10.37,2013-08-04 08:46:00,
2013-08-04 04:51:00,62.2,59.0,29.79,ESE,112,0.0,0.0,89,0.00,CLR,,0.00,WeatherDisplay:10.37,2013-08-04 08:51:00,
2013-08-04 04:56:00,62.1,59.1,29.80,ESE,112,0.0,0.0,90,0.00,CLR,,0.00,WeatherDisplay:10.37,2013-08-04 08:56:00,
2013-08-04 05:01:00,62.1,59.1,29.80,ESE,112,0.0,0.0,90,0.00,CLR,,0.00,WeatherDisplay:10.37,2013-08-04 09:01:00,
2013-08-04 05:06:00,61.9,58.9,29.80,ESE,112,0.0,0.0,90,0.00,CLR,,0.00,WeatherDisplay:10.37,2013-08-04 09:06:00,
2013-08-04 05:11:00,61.9,58.9,29.80,ESE,112,0.0,0.0,90,0.00,CLR,,0.00,WeatherDisplay:10.37,2013-08-04 09:11:00,
2013-08-04 05:16:00,61.9,58.9,29.79,ESE,112,0.0,0.0,90,0.00,CLR,,0.00,WeatherDisplay:10.37,2013-08-04 09:16:00,
2013-08-04 05:21:00,61.9,58.9,29.79,ESE,112,0.0,0.0,90,0.00,CLR,,0.00,WeatherDisplay:10.37,2013-08-04 09:21:00,
2013-08-04 05:26:00,61.7,58.7,29.80,ESE,112,0.0,0.0,90,0.00,CLR,,0.00,WeatherDisplay:10.37,2013-08-04 09:26:00,
2013-08-04 05:31:00,61.5,58.6,29.79,ESE,112,0.0,0.0,90,0.00,CLR,,0.00,WeatherDisplay:10.37,2013-08-04 09:31:00,
2013-08-04 05:36:00,61.5,58.6,29.80,ESE,112,0.0,0.0,90,0.00,CLR,,0.00,WeatherDisplay:10.37,2013-08-04 09:36:00,
2013-08-04 05:41:00,61.3,58.4,29.80,ESE,112,0.0,0.0,90,0.00,CLR,,0.00,WeatherDisplay:10.37,2013-08-04 09:41:00,
2013-08-04 05:46:00,61.2,58.2,29.80,ESE,112,0.0,0.0,90,0.00,CLR,,0.00,WeatherDisplay:10.37,2013-08-04 09:46:00,
2013-08-04 05:51:00,61.0,58.0,29.80,ESE,112,0.0,0.0,90,0.00,CLR,,0.00,WeatherDisplay:10.37,2013-08-04 09:51:00,
2013-08-04 05:56:00,61.0,58.0,29.80,ESE,112,0.0,0.0,90,0.00,CLR,,0.00,WeatherDisplay:10.37,2013-08-04 09:56:00,
2013-08-04 06:01:00,60.8,57.8,29.80,ESE,112,0.0,0.0,90,0.00,CLR,,0.00,WeatherDisplay:10.37,2013-08-04 10:01:00,
2013-08-04 06:06:00,60.8,57.8,29.80,ESE,112,0.0,0.0,90,0.00,CLR,,0.00,WeatherDisplay:10.37,2013-08-04 10:06:00,
2013-08-04 06:11:00,60.6,57.7,29.80,ESE,112,0.0,0.0,90,0.00,CLR,,0.00,WeatherDisplay:10.37,2013-08-04 10:11:00,
2013-08-04 06:16:00,60.4,57.5,29.80,ESE,112,0.0,0.0,90,0.00,CLR,,0.00,WeatherDisplay:10.37,2013-08-04 10:16:00,
2013-08-04 06:21:00,60.4,57.5,29.80,ESE,112,0.0,0.0,90,0.00,CLR,,0.00,WeatherDisplay:10.37,2013-08-04 10:21:00,
2013-08-04 06:26:00,60.4,57.5,29.80,ESE,112,0.0,0.0,90,0.00,CLR,,0.00,WeatherDisplay:10.37,2013-08-04 10:26:00,
2013-08-04 06:31:00,60.4,57.5,29.80,ESE,112,0.0,0.0,90,0.00,CLR,,0.00,WeatherDisplay:10.37,2013-08-04 10:31:00,
2013-08-04 06:36:00,60.4,57.5,29.80,ESE,112,0.0,0.0,90,0.00,CLR,,0.00,WeatherDisplay:10.37,2013-08-04 10:36:00,
2013-08-04 06:41:00,60.4,57.5,29.80,ESE,112,0.0,0.0,90,0.00,CLR,,0.00,WeatherDisplay:10.37,2013-08-04 10:41:00,
2013-08-04 06:46:00,60.3,57.3,29.80,ESE,112,0.0,0.0,90,0.00,CLR,,0.00,WeatherDisplay:10.37,2013-08-04 10:46:00,
2013-08-04 06:51:00,60.4,57.5,29.81,ESE,112,0.0,0.0,90,0.00,CLR,,0.00,WeatherDisplay:10.37,2013-08-04 10:51:00,
2013-08-04 06:56:00,60.4,57.5,29.81,ESE,112,0.0,0.0,90,0.00,CLR,,0.00,WeatherDisplay:10.37,2013-08-04 10:56:00,
2013-08-04 07:01:00,60.8,57.8,29.81,ESE,112,0.0,0.0,90,0.00,CLR,,0.00,WeatherDisplay:10.37,2013-08-04 11:01:00,
2013-08-04 07:06:00,61.5,58.9,29.81,ESE,112,0.0,0.0,91,0.00,CLR,,0.00,WeatherDisplay:10.37,2013-08-04 11:06:00,
2013-08-04 07:11:00,61.7,58.7,29.81,ESE,112,0.0,0.0,90,0.00,CLR,,0.00,WeatherDisplay:10.37,2013-08-04 11:11:00,
2013-08-04 07:16:00,61.9,58.9,29.81,ESE,112,0.0,0.0,90,0.00,CLR,,0.00,WeatherDisplay:10.37,2013-08-04 11:16:00,
2013-08-04 07:21:00,62.2,59.3,29.81,ESE,112,0.0,0.0,90,0.00,CLR,,0.00,WeatherDisplay:10.37,2013-08-04 11:21:00,
2013-08-04 07:26:00,62.4,59.4,29.81,ESE,112,0.0,0.0,90,0.00,CLR,,0.00,WeatherDisplay:10.37,2013-08-04 11:26:00,
2013-08-04 07:31:00,62.4,59.4,29.81,ESE,112,0.0,0.0,90,0.00,CLR,,0.00,WeatherDisplay:10.37,2013-08-04 11:31:00,
2013-08-04 07:36:00,62.4,59.1,29.81,ESE,112,0.0,0.0,89,0.00,CLR,,0.00,WeatherDisplay:10.37,2013-08-04 11:36:00,
2013-08-04 07:41:00,62.6,59.3,29.82,ESE,112,0.0,0.0,89,0.00,CLR,,0.00,WeatherDisplay:10.37,2013-08-04 11:41:00,
2013-08-04 07:46:00,62.6,59.3,29.81,SW,225,0.0,0.0,89,0.00,CLR,,0.00,WeatherDisplay:10.37,2013-08-04 11:46:00,
2013-08-04 07:51:00,62.6,59.3,29.82,NW,315,1.1,1.1,89,0.00,CLR,,0.00,WeatherDisplay:10.37,2013-08-04 11:51:00,
2013-08-04 07:56:00,62.8,58.9,29.82,SE,135,1.1,0.0,87,0.00,CLR,,0.00,WeatherDisplay:10.37,2013-08-04 11:56:00,
2013-08-04 08:01:00,63.1,58.9,29.82,North,0,0.0,0.0,86,0.00,CLR,,0.00,WeatherDisplay:10.37,2013-08-04 12:01:00,
2013-08-04 08:06:00,63.3,59.1,29.82,ESE,112,0.0,0.0,86,0.00,CLR,,0.00,WeatherDisplay:10.37,2013-08-04 12:06:00,
2013-08-04 08:11:00,63.5,58.9,29.81,NW,315,1.1,1.1,85,0.00,CLR,,0.00,WeatherDisplay:10.37,2013-08-04 12:11:00,
2013-08-04 08:16:00,63.7,59.1,29.82,SE,135,0.0,0.5,85,0.00,CLR,,0.00,WeatherDisplay:10.37,2013-08-04 12:16:00,
2013-08-04 08:21:00,63.7,58.8,29.82,ENE,68,1.1,1.1,84,0.00,CLR,,0.00,WeatherDisplay:10.37,2013-08-04 12:21:00,
2013-08-04 08:26:00,64.0,58.8,29.82,NW,315,0.0,0.0,83,0.00,CLR,,0.00,WeatherDisplay:10.37,2013-08-04 12:26:00,
2013-08-04 08:31:00,64.2,58.9,29.81,WSW,248,0.2,0.2,83,0.00,CLR,,0.00,WeatherDisplay:10.37,2013-08-04 12:31:00,
2013-08-04 08:36:00,64.8,59.1,29.81,WNW,292,1.1,1.1,82,0.00,CLR,,0.00,WeatherDisplay:10.37,2013-08-04 12:36:00,
2013-08-04 08:41:00,65.1,59.5,29.81,NE,45,1.1,0.0,82,0.00,CLR,,0.00,WeatherDisplay:10.37,2013-08-04 12:41:00,
2013-08-04 08:46:00,65.5,59.5,29.81,ENE,68,1.1,0.0,81,0.00,CLR,,0.00,WeatherDisplay:10.37,2013-08-04 12:46:00,
2013-08-04 08:51:00,65.5,59.1,29.81,ESE,112,1.6,1.6,80,0.00,CLR,,0.00,WeatherDisplay:10.37,2013-08-04 12:51:00,
2013-08-04 08:56:00,65.5,59.1,29.81,ENE,68,0.0,0.0,80,0.00,CLR,,0.00,WeatherDisplay:10.37,2013-08-04 12:56:00,
2013-08-04 09:01:00,65.5,59.5,29.81,NE,45,0.2,0.2,81,0.00,CLR,,0.00,WeatherDisplay:10.37,2013-08-04 13:01:00,
2013-08-04 09:06:00,65.5,59.5,29.81,ENE,68,1.1,1.1,81,0.00,CLR,,0.00,WeatherDisplay:10.37,2013-08-04 13:06:00,
2013-08-04 09:11:00,65.5,59.5,29.81,NW,315,1.1,0.0,81,0.00,CLR,,0.00,WeatherDisplay:10.37,2013-08-04 13:11:00,
2013-08-04 09:16:00,65.5,59.5,29.81,NNW,338,1.1,0.0,81,0.00,CLR,,0.00,WeatherDisplay:10.37,2013-08-04 13:16:00,
2013-08-04 09:21:00,65.8,59.8,29.81,ENE,68,1.1,1.1,81,0.00,CLR,,0.00,WeatherDisplay:10.37,2013-08-04 13:21:00,
2013-08-04 09:26:00,66.0,59.7,29.82,ENE,68,1.1,0.0,80,0.00,CLR,,0.00,WeatherDisplay:10.37,2013-08-04 13:26:00,
2013-08-04 09:31:00,66.4,60.0,29.81,ENE,68,1.1,1.1,80,0.00,CLR,,0.00,WeatherDisplay:10.37,2013-08-04 13:31:00,
2013-08-04 09:36:00,66.9,60.5,29.82,NE,45,1.1,1.1,80,0.00,CLR,,0.00,WeatherDisplay:10.37,2013-08-04 13:36:00,
2013-08-04 09:41:00,67.3,60.5,29.82,SE,135,2.3,2.3,79,0.00,CLR,,0.00,WeatherDisplay:10.37,2013-08-04 13:41:00,
2013-08-04 09:46:00,67.6,60.9,29.81,SSE,158,1.1,1.1,79,0.00,CLR,,0.00,WeatherDisplay:10.37,2013-08-04 13:46:00,
2013-08-04 09:51:00,68.0,60.5,29.81,NE,45,1.1,1.1,77,0.00,CLR,,0.00,WeatherDisplay:10.37,2013-08-04 13:51:00,
2013-08-04 09:56:00,68.7,60.1,29.81,ENE,68,3.3,3.3,74,0.00,CLR,,0.00,WeatherDisplay:10.37,2013-08-04 13:56:00,
2013-08-04 10:01:00,69.3,61.0,29.81,ENE,68,2.2,2.2,75,0.00,CLR,,0.00,WeatherDisplay:10.37,2013-08-04 14:01:00,
2013-08-04 10:06:00,69.4,60.8,29.81,NE,45,2.3,2.3,74,0.00,CLR,,0.00,WeatherDisplay:10.37,2013-08-04 14:06:00,
2013-08-04 10:11:00,69.4,60.8,29.81,ESE,112,1.1,1.1,74,0.00,CLR,,0.00,WeatherDisplay:10.37,2013-08-04 14:11:00,
2013-08-04 10:16:00,69.8,60.4,29.81,ENE,68,2.3,2.3,72,0.00,CLR,,0.00,WeatherDisplay:10.37,2013-08-04 14:16:00,
2013-08-04 10:21:00,70.2,61.5,29.81,NE,45,2.3,2.3,74,0.00,CLR,,0.00,WeatherDisplay:10.37,2013-08-04 14:21:00,
2013-08-04 10:26:00,70.2,60.7,29.81,East,90,1.1,1.1,72,0.00,CLR,,0.00,WeatherDisplay:10.37,2013-08-04 14:26:00,
2013-08-04 10:31:00,70.5,60.7,29.81,NE,45,1.1,1.1,71,0.00,CLR,,0.00,WeatherDisplay:10.37,2013-08-04 14:31:00,
2013-08-04 10:36:00,70.7,60.4,29.81,East,90,1.1,1.1,70,0.00,CLR,,0.00,WeatherDisplay:10.37,2013-08-04 14:36:00,
2013-08-04 10:41:00,71.2,59.7,29.81,East,90,2.3,2.3,67,0.00,CLR,,0.00,WeatherDisplay:10.37,2013-08-04 14:41:00,
2013-08-04 10:46:00,71.6,60.5,29.81,East,90,2.3,2.3,68,0.00,CLR,,0.00,WeatherDisplay:10.37,2013-08-04 14:46:00,
2013-08-04 10:51:00,71.8,61.1,29.81,ESE,112,2.4,2.4,69,0.00,CLR,,0.00,WeatherDisplay:10.37,2013-08-04 14:51:00,
2013-08-04 10:56:00,72.0,60.0,29.82,North,0,2.3,2.3,66,0.00,CLR,,0.00,WeatherDisplay:10.37,2013-08-04 14:56:00,
2013-08-04 11:01:00,72.3,59.9,29.81,ENE,68,2.3,2.3,65,0.00,CLR,,0.00,WeatherDisplay:10.37,2013-08-04 15:01:00,
2013-08-04 11:06:00,72.5,59.2,29.82,ESE,112,3.5,3.5,63,0.00,CLR,,0.00,WeatherDisplay:10.37,2013-08-04 15:06:00,
2013-08-04 11:11:00,72.7,59.8,29.82,NNW,338,2.3,2.3,64,0.00,CLR,,0.00,WeatherDisplay:10.37,2013-08-04 15:11:00,
2013-08-04 11:16:00,72.7,60.2,29.82,WNW,292,1.1,1.1,65,0.00,CLR,,0.00,WeatherDisplay:10.37,2013-08-04 15:16:00,
2013-08-04 11:21:00,73.0,60.6,29.82,West,270,1.1,1.1,65,0.00,CLR,,0.00,WeatherDisplay:10.37,2013-08-04 15:21:00,
2013-08-04 11:26:00,73.0,60.6,29.82,NW,315,2.3,2.3,65,0.00,CLR,,0.00,WeatherDisplay:10.37,2013-08-04 15:26:00,
2013-08-04 11:31:00,73.4,60.9,29.82,East,90,2.3,2.3,65,0.00,CLR,,0.00,WeatherDisplay:10.37,2013-08-04 15:31:00,
2013-08-04 11:36:00,73.6,59.8,29.82,ENE,68,3.5,3.5,62,0.00,CLR,,0.00,WeatherDisplay:10.37,2013-08-04 15:36:00,
2013-08-04 11:41:00,73.8,59.5,29.82,NNW,338,3.5,3.5,61,0.00,CLR,,0.00,WeatherDisplay:10.37,2013-08-04 15:41:00,
2013-08-04 11:46:00,73.6,59.8,29.82,East,90,2.3,2.3,62,0.00,CLR,,0.00,WeatherDisplay:10.37,2013-08-04 15:46:00,
2013-08-04 11:51:00,73.8,59.0,29.82,ENE,68,4.6,4.6,60,0.00,CLR,,0.00,WeatherDisplay:10.37,2013-08-04 15:51:00,
2013-08-04 11:56:00,73.9,59.2,29.82,ENE,68,4.6,4.6,60,0.00,CLR,,0.00,WeatherDisplay:10.37,2013-08-04 15:56:00,
2013-08-04 12:01:00,73.8,58.1,29.82,East,90,4.7,4.7,58,0.00,CLR,,0.00,WeatherDisplay:10.37,2013-08-04 16:01:00,
2013-08-04 12:06:00,73.8,59.5,29.82,NW,315,3.5,3.5,61,0.00,CLR,,0.00,WeatherDisplay:10.37,2013-08-04 16:06:00,
2013-08-04 12:11:00,73.8,59.9,29.82,ESE,112,2.2,2.2,62,0.00,CLR,,0.00,WeatherDisplay:10.37,2013-08-04 16:11:00,
2013-08-04 12:16:00,73.8,59.5,29.82,ENE,68,1.8,1.8,61,0.00,CLR,,0.00,WeatherDisplay:10.37,2013-08-04 16:16:00,
2013-08-04 12:21:00,73.9,59.2,29.82,North,0,3.5,3.5,60,0.00,CLR,,0.00,WeatherDisplay:10.37,2013-08-04 16:21:00,
2013-08-04 12:26:00,74.3,59.5,29.81,SE,135,3.5,3.5,60,0.00,CLR,,0.00,WeatherDisplay:10.37,2013-08-04 16:26:00,
2013-08-04 12:31:00,74.5,59.7,29.82,SSW,202,3.5,3.5,60,0.00,CLR,,0.00,WeatherDisplay:10.37,2013-08-04 16:31:00,
2013-08-04 12:36:00,74.8,59.5,29.82,ESE,112,2.3,2.3,59,0.00,CLR,,0.00,WeatherDisplay:10.37,2013-08-04 16:36:00,
2013-08-04 12:41:00,75.0,60.2,29.81,ESE,112,2.3,2.3,60,0.00,CLR,,0.00,WeatherDisplay:10.37,2013-08-04 16:41:00,
2013-08-04 12:46:00,74.8,58.6,29.82,East,90,3.5,3.5,57,0.00,CLR,,0.00,WeatherDisplay:10.37,2013-08-04 16:46:00,
2013-08-04 12:51:00,74.1,58.9,29.82,ENE,68,3.1,3.1,59,0.00,CLR,,0.00,WeatherDisplay:10.37,2013-08-04 16:51:00,
2013-08-04 12:56:00,74.3,59.0,29.81,SSW,202,1.1,1.1,59,0.00,CLR,,0.00,WeatherDisplay:10.37,2013-08-04 16:56:00,
2013-08-04 13:01:00,74.8,59.5,29.81,SSE,158,2.3,2.3,59,0.00,CLR,,0.00,WeatherDisplay:10.37,2013-08-04 17:01:00,
2013-08-04 13:06:00,75.0,59.2,29.82,ENE,68,3.5,3.5,58,0.00,CLR,,0.00,WeatherDisplay:10.37,2013-08-04 17:06:00,
2013-08-04 13:11:00,75.4,59.6,29.81,SW,225,2.3,2.3,58,0.00,CLR,,0.00,WeatherDisplay:10.37,2013-08-04 17:11:00,
2013-08-04 13:16:00,75.7,58.9,29.81,WNW,292,2.3,2.3,56,0.00,CLR,,0.00,WeatherDisplay:10.37,2013-08-04 17:16:00,
2013-08-04 13:21:00,75.9,59.1,29.81,SW,225,3.5,3.5,56,0.00,CLR,,0.00,WeatherDisplay:10.37,2013-08-04 17:21:00,
2013-08-04 13:26:00,76.3,58.9,29.81,SE,135,3.5,4.0,55,0.00,CLR,,0.00,WeatherDisplay:10.37,2013-08-04 17:26:00,
2013-08-04 13:31:00,75.9,58.1,29.81,ESE,112,2.3,2.3,54,0.00,CLR,,0.00,WeatherDisplay:10.37,2013-08-04 17:31:00,
2013-08-04 13:36:00,76.1,57.2,29.81,ESE,112,4.6,4.6,52,0.00,CLR,,0.00,WeatherDisplay:10.37,2013-08-04 17:36:00,
2013-08-04 13:41:00,76.1,57.7,29.80,NE,45,4.6,4.6,53,0.00,CLR,,0.00,WeatherDisplay:10.37,2013-08-04 17:41:00,
2013-08-04 13:46:00,76.3,57.9,29.80,ENE,68,2.3,2.3,53,0.00,CLR,,0.00,WeatherDisplay:10.37,2013-08-04 17:46:00,
2013-08-04 13:51:00,76.8,58.4,29.80,ESE,112,2.4,2.4,53,0.00,CLR,,0.00,WeatherDisplay:10.37,2013-08-04 17:51:00,
2013-08-04 13:56:00,77.4,58.4,29.80,ENE,68,2.3,2.3,52,0.00,CLR,,0.00,WeatherDisplay:10.37,2013-08-04 17:56:00,
2013-08-04 14:01:00,77.4,58.4,29.80,NNE,22,2.3,2.3,52,0.00,CLR,,0.00,WeatherDisplay:10.37,2013-08-04 18:01:00,
2013-08-04 14:06:00,77.5,58.5,29.80,NNW,338,2.3,2.3,52,0.00,CLR,,0.00,WeatherDisplay:10.37,2013-08-04 18:06:00,
2013-08-04 14:11:00,77.4,56.7,29.80,ENE,68,4.6,4.6,49,0.00,CLR,,0.00,WeatherDisplay:10.37,2013-08-04 18:11:00,
2013-08-04 14:16:00,77.7,58.1,29.80,NNE,22,3.3,3.3,51,0.00,CLR,,0.00,WeatherDisplay:10.37,2013-08-04 18:16:00,
2013-08-04 14:21:00,78.1,58.5,29.79,WNW,292,2.3,2.6,51,0.00,CLR,,0.00,WeatherDisplay:10.37,2013-08-04 18:21:00,
2013-08-04 14:26:00,78.3,57.0,29.79,NE,45,4.6,4.6,48,0.00,CLR,,0.00,WeatherDisplay:10.37,2013-08-04 18:26:00,
2013-08-04 14:31:00,78.4,57.7,29.80,ENE,68,2.3,2.3,49,0.00,CLR,,0.00,WeatherDisplay:10.37,2013-08-04 18:31:00,
2013-08-04 14:36:00,78.6,57.9,29.79,ESE,112,2.3,2.3,49,0.00,CLR,,0.00,WeatherDisplay:10.37,2013-08-04 18:36:00,
2013-08-04 14:42:00,77.9,55.5,29.79,ESE,112,4.3,4.3,46,0.00,CLR,,0.00,WeatherDisplay:10.37,2013-08-04 18:42:00,
2013-08-04 14:47:00,78.3,57.5,29.79,SE,135,2.3,2.3,49,0.00,CLR,,0.00,WeatherDisplay:10.37,2013-08-04 18:47:00,
2013-08-04 14:52:00,78.6,57.9,29.79,SE,135,1.1,1.1,49,0.00,CLR,,0.00,WeatherDisplay:10.37,2013-08-04 18:52:00,
2013-08-04 14:57:00,78.8,58.0,29.79,NNW,338,3.5,3.5,49,0.00,CLR,,0.00,WeatherDisplay:10.37,2013-08-04 18:57:00,
2013-08-04 15:02:00,78.8,57.4,29.79,NE,45,2.3,2.3,48,0.00,CLR,,0.00,WeatherDisplay:10.37,2013-08-04 19:02:00,
2013-08-04 15:07:00,78.6,57.3,29.79,NW,315,3.5,3.5,48,0.00,CLR,,0.00,WeatherDisplay:10.37,2013-08-04 19:07:00,
2013-08-04 15:12:00,79.0,57.6,29.79,NE,45,3.5,3.5,48,0.00,CLR,,0.00,WeatherDisplay:10.37,2013-08-04 19:12:00,
2013-08-04 15:17:00,79.2,57.8,29.79,East,90,4.6,4.6,48,0.00,CLR,,0.00,WeatherDisplay:10.37,2013-08-04 19:17:00,
2013-08-04 15:22:00,79.2,58.4,29.79,WNW,292,2.3,2.3,49,0.00,CLR,,0.00,WeatherDisplay:10.37,2013-08-04 19:22:00,
2013-08-04 15:27:00,80.1,59.7,29.78,SE,135,2.3,2.3,50,0.00,CLR,,0.00,WeatherDisplay:10.37,2013-08-04 19:27:00,
2013-08-04 15:32:00,81.3,59.8,29.79,SSW,202,4.6,4.6,48,0.00,CLR,,0.00,WeatherDisplay:10.37,2013-08-04 19:32:00,
2013-08-04 15:37:00,81.9,56.5,29.79,ENE,68,6.0,6.0,42,0.00,CLR,,0.00,WeatherDisplay:10.37,2013-08-04 19:37:00,
2013-08-04 15:42:00,81.3,57.9,29.79,NE,45,2.3,2.3,45,0.00,CLR,,0.00,WeatherDisplay:10.37,2013-08-04 19:42:00,
2013-08-04 15:47:00,81.0,56.4,29.79,WNW,292,4.6,4.6,43,0.00,CLR,,0.00,WeatherDisplay:10.37,2013-08-04 19:47:00,
2013-08-04 15:52:00,79.9,56.0,29.79,West,270,3.5,3.5,44,0.00,CLR,,0.00,WeatherDisplay:10.37,2013-08-04 19:52:00,
2013-08-04 15:57:00,79.7,57.1,29.78,South,180,3.5,3.5,46,0.00,CLR,,0.00,WeatherDisplay:10.37,2013-08-04 19:57:00,
2013-08-04 16:02:00,79.9,56.0,29.78,ESE,112,3.5,3.5,44,0.00,CLR,,0.00,WeatherDisplay:10.37,2013-08-04 20:02:00,
2013-08-04 16:07:00,79.9,56.6,29.78,NNE,22,1.4,1.4,45,0.00,CLR,,0.00,WeatherDisplay:10.37,2013-08-04 20:07:00,
2013-08-04 16:12:00,80.2,57.6,29.78,ENE,68,2.3,2.3,46,0.00,CLR,,0.00,WeatherDisplay:10.37,2013-08-04 20:12:00,
2013-08-04 16:17:00,80.2,57.6,29.78,SSW,202,1.1,1.1,46,0.00,CLR,,0.00,WeatherDisplay:10.37,2013-08-04 20:17:00,
2013-08-04 16:22:00,79.9,57.3,29.78,NNW,338,1.1,1.1,46,0.00,CLR,,0.00,WeatherDisplay:10.37,2013-08-04 20:22:00,
2013-08-04 16:27:00,80.1,58.0,29.78,NNW,338,2.4,2.4,47,0.00,CLR,,0.00,WeatherDisplay:10.37,2013-08-04 20:27:00,
2013-08-04 16:32:00,79.9,56.6,29.78,SSE,158,4.6,4.6,45,0.00,CLR,,0.00,WeatherDisplay:10.37,2013-08-04 20:32:00,
2013-08-04 16:37:00,79.9,57.3,29.78,ESE,112,4.6,4.6,46,0.00,CLR,,0.00,WeatherDisplay:10.37,2013-08-04 20:37:00,
2013-08-04 16:42:00,79.9,57.8,29.78,North,0,3.5,3.5,47,0.00,CLR,,0.00,WeatherDisplay:10.37,2013-08-04 20:42:00,
2013-08-04 16:47:00,80.1,58.0,29.78,SSE,158,2.3,2.3,47,0.00,CLR,,0.00,WeatherDisplay:10.37,2013-08-04 20:47:00,
2013-08-04 16:52:00,79.9,58.4,29.78,SW,225,4.6,4.6,48,0.00,CLR,,0.00,WeatherDisplay:10.37,2013-08-04 20:52:00,
2013-08-04 16:57:00,79.7,57.1,29.78,East,90,2.3,2.3,46,0.00,CLR,,0.00,WeatherDisplay:10.37,2013-08-04 20:57:00,
2013-08-04 17:02:00,79.3,56.8,29.79,NNW,338,3.5,3.5,46,0.00,CLR,,0.00,WeatherDisplay:10.37,2013-08-04 21:02:00,
2013-08-04 17:07:00,79.2,57.8,29.79,NE,45,2.3,2.3,48,0.00,CLR,,0.00,WeatherDisplay:10.37,2013-08-04 21:07:00,
2013-08-04 17:12:00,79.3,57.4,29.79,West,270,2.4,2.4,47,0.00,CLR,,0.00,WeatherDisplay:10.37,2013-08-04 21:12:00,
2013-08-04 17:17:00,79.3,57.4,29.79,ENE,68,3.5,3.5,47,0.00,CLR,,0.00,WeatherDisplay:10.37,2013-08-04 21:17:00,
2013-08-04 17:22:00,79.0,57.0,29.79,NE,45,2.3,2.3,47,0.00,CLR,,0.00,WeatherDisplay:10.37,2013-08-04 21:22:00,
2013-08-04 17:27:00,78.8,56.9,29.79,NE,45,2.3,2.3,47,0.00,CLR,,0.00,WeatherDisplay:10.37,2013-08-04 21:27:00,
2013-08-04 17:32:00,78.6,56.7,29.79,East,90,4.6,4.6,47,0.00,CLR,,0.00,WeatherDisplay:10.37,2013-08-04 21:32:00,
2013-08-04 17:37:00,78.4,55.3,29.79,NW,315,4.6,4.6,45,0.00,CLR,,0.00,WeatherDisplay:10.37,2013-08-04 21:37:00,
2013-08-04 17:42:00,78.3,55.8,29.80,North,0,5.8,5.8,46,0.00,CLR,,0.00,WeatherDisplay:10.37,2013-08-04 21:42:00,
2013-08-04 17:47:00,78.1,56.8,29.80,ENE,68,3.5,3.5,48,0.00,CLR,,0.00,WeatherDisplay:10.37,2013-08-04 21:47:00,
2013-08-04 17:49:00,78.1,56.2,29.80,ESE,112,2.3,2.3,47,0.00,CLR,,0.00,WeatherDisplay:10.37,2013-08-04 21:49:00,
2013-08-04 17:54:00,78.1,56.2,29.80,ENE,68,2.3,2.3,47,0.00,CLR,,0.00,WeatherDisplay:10.37,2013-08-04 21:54:00,
2013-08-04 17:59:00,78.1,55.0,29.80,ENE,68,2.3,2.3,45,0.00,CLR,,0.00,WeatherDisplay:10.37,2013-08-04 21:59:00,
2013-08-04 18:04:00,77.9,54.2,29.80,NNE,22,3.5,3.5,44,0.00,CLR,,0.00,WeatherDisplay:10.37,2013-08-04 22:04:00,
2013-08-04 18:09:00,77.7,54.7,29.80,NNE,22,2.3,4.0,45,0.00,CLR,,0.00,WeatherDisplay:10.37,2013-08-04 22:09:00,
2013-08-04 18:14:00,77.5,54.5,29.80,East,90,5.8,5.8,45,0.00,CLR,,0.00,WeatherDisplay:10.37,2013-08-04 22:14:00,
2013-08-04 18:19:00,77.4,55.0,29.80,NNW,338,2.3,2.3,46,0.00,CLR,,0.00,WeatherDisplay:10.37,2013-08-04 22:19:00,
2013-08-04 18:24:00,77.4,55.6,29.80,NE,45,1.1,1.1,47,0.00,CLR,,0.00,WeatherDisplay:10.37,2013-08-04 22:24:00,
2013-08-04 18:29:00,77.2,54.8,29.80,SE,135,2.4,2.4,46,0.00,CLR,,0.00,WeatherDisplay:10.37,2013-08-04 22:29:00,
2013-08-04 18:34:00,77.0,54.6,29.80,WSW,248,4.6,4.6,46,0.00,CLR,,0.00,WeatherDisplay:10.37,2013-08-04 22:34:00,
2013-08-04 18:39:00,77.0,55.2,29.80,ENE,68,4.3,4.3,47,0.00,CLR,,0.00,WeatherDisplay:10.37,2013-08-04 22:39:00,
2013-08-04 18:44:00,76.8,53.9,29.80,East,90,2.3,2.3,45,0.00,CLR,,0.00,WeatherDisplay:10.37,2013-08-04 22:44:00,
2013-08-04 18:49:00,76.6,54.3,29.81,ENE,68,2.3,2.3,46,0.00,CLR,,0.00,WeatherDisplay:10.37,2013-08-04 22:49:00,
2013-08-04 18:54:00,76.6,54.3,29.81,ENE,68,3.5,3.5,46,0.00,CLR,,0.00,WeatherDisplay:10.37,2013-08-04 22:54:00,
2013-08-04 18:59:00,76.5,54.7,29.81,East,90,1.1,1.1,47,0.00,CLR,,0.00,WeatherDisplay:10.37,2013-08-04 22:59:00,
2013-08-04 19:04:00,76.3,55.1,29.81,SW,225,1.1,1.1,48,0.00,CLR,,0.00,WeatherDisplay:10.37,2013-08-04 23:04:00,
2013-08-04 19:09:00,76.1,55.0,29.82,NE,45,1.1,0.0,48,0.00,CLR,,0.00,WeatherDisplay:10.37,2013-08-04 23:09:00,
2013-08-04 19:14:00,75.9,55.4,29.82,West,270,1.1,1.1,49,0.00,CLR,,0.00,WeatherDisplay:10.37,2013-08-04 23:14:00,
2013-08-04 19:19:00,75.6,54.5,29.82,ENE,68,3.5,3.5,48,0.00,CLR,,0.00,WeatherDisplay:10.37,2013-08-04 23:19:00,
2013-08-04 19:24:00,75.2,54.7,29.82,ESE,112,1.1,1.1,49,0.00,CLR,,0.00,WeatherDisplay:10.37,2013-08-04 23:24:00,
2013-08-04 19:29:00,75.0,54.6,29.82,NNW,338,2.3,0.0,49,0.00,CLR,,0.00,WeatherDisplay:10.37,2013-08-04 23:29:00,
2013-08-04 19:34:00,74.8,54.4,29.82,NNE,22,3.5,3.5,49,0.00,CLR,,0.00,WeatherDisplay:10.37,2013-08-04 23:34:00,
2013-08-04 19:39:00,74.8,54.9,29.82,SE,135,0.9,0.9,50,0.00,CLR,,0.00,WeatherDisplay:10.37,2013-08-04 23:39:00,
2013-08-04 19:44:00,74.7,54.8,29.83,SE,135,1.1,1.1,50,0.00,CLR,,0.00,WeatherDisplay:10.37,2013-08-04 23:44:00,
2013-08-04 19:49:00,74.5,55.2,29.83,ESE,112,1.4,1.4,51,0.00,CLR,,0.00,WeatherDisplay:10.37,2013-08-04 23:49:00,
2013-08-04 19:54:00,74.1,54.8,29.83,NNW,338,2.3,2.3,51,0.00,CLR,,0.00,WeatherDisplay:10.37,2013-08-04 23:54:00,
2013-08-04 19:59:00,73.9,54.7,29.83,East,90,2.3,2.3,51,0.00,CLR,,0.00,WeatherDisplay:10.37,2013-08-04 23:59:00,
2013-08-04 20:04:00,73.8,54.5,29.83,ESE,112,2.0,2.0,51,0.00,CLR,,0.00,WeatherDisplay:10.37,2013-08-05 00:04:00,
2013-08-04 20:09:00,73.6,54.9,29.83,East,90,0.0,1.8,52,0.00,CLR,,0.00,WeatherDisplay:10.37,2013-08-05 00:09:00,
2013-08-04 20:14:00,73.2,54.0,29.84,East,90,2.3,2.3,51,0.00,CLR,,0.00,WeatherDisplay:10.37,2013-08-05 00:14:00,
2013-08-04 20:19:00,73.0,54.4,29.84,East,90,1.1,1.1,52,0.00,CLR,,0.00,WeatherDisplay:10.37,2013-08-05 00:19:00,
2013-08-04 20:24:00,72.9,54.2,29.84,SE,135,2.3,2.3,52,0.00,CLR,,0.00,WeatherDisplay:10.37,2013-08-05 00:24:00,
2013-08-04 20:29:00,72.7,54.0,29.84,NNW,338,1.1,1.1,52,0.00,CLR,,0.00,WeatherDisplay:10.37,2013-08-05 00:29:00,
2013-08-04 20:34:00,72.5,53.9,29.85,ENE,68,1.1,0.0,52,0.00,CLR,,0.00,WeatherDisplay:10.37,2013-08-05 00:34:00,
2013-08-04 20:39:00,72.3,53.7,29.85,WSW,248,2.9,2.9,52,0.00,CLR,,0.00,WeatherDisplay:10.37,2013-08-05 00:39:00,
2013-08-04 20:44:00,72.3,53.7,29.85,North,0,1.1,1.1,52,0.00,CLR,,0.00,WeatherDisplay:10.37,2013-08-05 00:44:00,
2013-08-04 20:49:00,72.0,53.9,29.85,East,90,1.1,1.1,53,0.00,CLR,,0.00,WeatherDisplay:10.37,2013-08-05 00:49:00,
2013-08-04 20:54:00,72.0,53.9,29.85,East,90,1.1,1.1,53,0.00,CLR,,0.00,WeatherDisplay:10.37,2013-08-05 00:54:00,
2013-08-04 20:59:00,71.6,53.6,29.86,SW,225,2.3,2.3,53,0.00,CLR,,0.00,WeatherDisplay:10.37,2013-08-05 00:59:00,
2013-08-04 21:04:00,71.4,53.4,29.86,ENE,68,2.3,2.3,53,0.00,CLR,,0.00,WeatherDisplay:10.37,2013-08-05 01:04:00,
2013-08-04 21:09:00,71.2,53.2,29.86,NNW,338,1.1,1.1,53,0.00,CLR,,0.00,WeatherDisplay:10.37,2013-08-05 01:09:00,
2013-08-04 21:14:00,71.2,53.7,29.87,NW,315,0.0,0.9,54,0.00,CLR,,0.00,WeatherDisplay:10.37,2013-08-05 01:14:00,
2013-08-04 21:19:00,70.9,53.4,29.87,ENE,68,1.1,1.1,54,0.00,CLR,,0.00,WeatherDisplay:10.37,2013-08-05 01:19:00,
2013-08-04 21:24:00,70.9,53.4,29.87,ENE,68,0.0,0.0,54,0.00,CLR,,0.00,WeatherDisplay:10.37,2013-08-05 01:24:00,
2013-08-04 21:29:00,70.9,53.4,29.87,East,90,0.0,0.0,54,0.00,CLR,,0.00,WeatherDisplay:10.37,2013-08-05 01:29:00,
2013-08-04 21:34:00,70.7,53.2,29.87,ENE,68,0.0,0.0,54,0.00,CLR,,0.00,WeatherDisplay:10.37,2013-08-05 01:34:00,
2013-08-04 21:39:00,70.5,53.1,29.88,ENE,68,0.0,0.0,54,0.00,CLR,,0.00,WeatherDisplay:10.37,2013-08-05 01:39:00,
2013-08-04 21:44:00,70.2,52.7,29.88,NNE,22,1.1,1.1,54,0.00,CLR,,0.00,WeatherDisplay:10.37,2013-08-05 01:44:00,
2013-08-04 21:49:00,70.2,53.2,29.88,WSW,248,0.0,0.0,55,0.00,CLR,,0.00,WeatherDisplay:10.37,2013-08-05 01:49:00,
2013-08-04 21:54:00,69.8,52.4,29.88,SSE,158,0.5,0.5,54,0.00,CLR,,0.00,WeatherDisplay:10.37,2013-08-05 01:54:00,
2013-08-04 21:59:00,69.6,52.7,29.88,NNE,22,0.0,0.0,55,0.00,CLR,,0.00,WeatherDisplay:10.37,2013-08-05 01:59:00,
2013-08-04 22:04:00,69.4,52.6,29.88,NW,315,1.1,1.1,55,0.00,CLR,,0.00,WeatherDisplay:10.37,2013-08-05 02:04:00,
2013-08-04 22:09:00,69.3,52.4,29.88,North,0,0.2,0.2,55,0.00,CLR,,0.00,WeatherDisplay:10.37,2013-08-05 02:09:00,
2013-08-04 22:14:00,69.1,52.2,29.89,NNW,338,0.0,0.0,55,0.00,CLR,,0.00,WeatherDisplay:10.37,2013-08-05 02:14:00,
2013-08-04 22:19:00,69.1,52.7,29.89,NE,45,0.0,0.0,56,0.00,CLR,,0.00,WeatherDisplay:10.37,2013-08-05 02:19:00,
2013-08-04 22:24:00,68.7,52.4,29.89,ENE,68,0.0,0.0,56,0.00,CLR,,0.00,WeatherDisplay:10.37,2013-08-05 02:24:00,
2013-08-04 22:29:00,68.7,52.4,29.89,ENE,68,0.0,0.0,56,0.00,CLR,,0.00,WeatherDisplay:10.37,2013-08-05 02:29:00,
2013-08-04 22:34:00,68.4,52.5,29.89,NNE,22,0.0,0.0,57,0.00,CLR,,0.00,WeatherDisplay:10.37,2013-08-05 02:34:00,
2013-08-04 22:39:00,68.2,52.4,29.90,NNE,22,0.0,0.0,57,0.00,CLR,,0.00,WeatherDisplay:10.37,2013-08-05 02:39:00,
2013-08-04 22:44:00,67.8,53.4,29.89,NNW,338,0.0,0.0,60,0.00,CLR,,0.00,WeatherDisplay:10.37,2013-08-05 02:44:00,
2013-08-04 22:49:00,66.9,53.0,29.90,West,270,0.0,0.0,61,0.00,CLR,,0.00,WeatherDisplay:10.37,2013-08-05 02:49:00,
2013-08-04 22:54:00,65.8,53.3,29.89,SE,135,0.0,0.0,64,0.00,CLR,,0.00,WeatherDisplay:10.37,2013-08-05 02:54:00,
2013-08-04 22:59:00,65.1,53.1,29.89,East,90,1.1,1.1,65,0.00,CLR,,0.00,WeatherDisplay:10.37,2013-08-05 02:59:00,
2013-08-04 23:04:00,64.4,52.8,29.89,NNW,338,0.0,0.2,66,0.00,CLR,,0.00,WeatherDisplay:10.37,2013-08-05 03:04:00,
2013-08-04 23:09:00,64.4,52.8,29.90,East,90,1.1,1.1,66,0.00,CLR,,0.00,WeatherDisplay:10.37,2013-08-05 03:09:00,
2013-08-04 23:14:00,64.2,53.0,29.90,SSE,158,1.1,1.1,67,0.00,CLR,,0.00,WeatherDisplay:10.37,2013-08-05 03:14:00,
2013-08-04 23:19:00,63.7,53.3,29.90,South,180,0.0,0.0,69,0.00,CLR,,0.00,WeatherDisplay:10.37,2013-08-05 03:19:00,
2013-08-04 23:24:00,63.3,53.4,29.90,ESE,112,0.0,0.0,70,0.00,CLR,,0.00,WeatherDisplay:10.37,2013-08-05 03:24:00,
2013-08-04 23:29:00,63.1,53.2,29.90,ESE,112,0.0,0.0,70,0.00,CLR,,0.00,WeatherDisplay:10.37,2013-08-05 03:29:00,
2013-08-04 23:34:00,62.8,53.2,29.90,ESE,112,0.0,0.0,71,0.00,CLR,,0.00,WeatherDisplay:10.37,2013-08-05 03:34:00,
2013-08-04 23:39:00,62.4,53.6,29.89,SSE,158,2.3,2.3,73,0.00,CLR,,0.00,WeatherDisplay:10.37,2013-08-05 03:39:00,
2013-08-04 23:44:00,62.1,52.9,29.90,South,180,0.0,0.0,72,0.00,CLR,,0.00,WeatherDisplay:10.37,2013-08-05 03:44:00,
2013-08-04 23:49:00,61.9,52.8,29.90,ENE,68,0.0,0.0,72,0.00,CLR,,0.00,WeatherDisplay:10.37,2013-08-05 03:49:00,
2013-08-04 23:54:00,61.5,52.8,29.90,ENE,68,0.0,0.0,73,0.00,CLR,,0.00,WeatherDisplay:10.37,2013-08-05 03:54:00,
2013-08-04 23:59:00,61.5,52.8,29.90,ESE,112,0.0,0.0,73,0.00,CLR,,0.00,WeatherDisplay:10.37,2013-08-05 03:59:00,